Multibeam Report for MV1010


Ship Name: Melville
Chief Scientist: Kohler, Monica
University of California, Los Angeles
Source Organization: UNOLS R2R
Start Date: 2010-08-14
End Date: 2010-08-27


View ISO Metadata

Visit the full NCEI Bathymetry Viewer


Multibeam Bathymetry

Cruise Details

Project: 3D Seismic Study of the Pacific-North American Plate Boundary in Southern California
Instrument: Kongsberg EM122

Data Quality

Number of Files: 519
Number of Records: 337790
BATHYMETRY DATA Quantity Percentage
Number of Beams 145925280 100%
Number of Good Beams 141824494 97.19%
Number of Zero Beams 0 0%
Number of Flagged Beams 4100786 2.81%

Navigation Totals

Total Time: 236.4312 hours
Total Track Length: 4485.1575 km
Average Speed: 18.97 km/hr (10.2430 knots)

Cruise Bounds

Northern Extent: 34.15109
Southern Extent: 31.898079
Western Extent: -124.67316
Eastern Extent: -117.34407

Limits

Minimum Sonar Depth 2.8778 Maximum Sonar Depth 7.9761
Minimum Altitude 93.049 Maximum Altitude 4990.1357
Minimum Depth 89.8419 Maximum Depth 5736.7412

File Information

Full Resolution Bathymetry as collected (raw): 515

Files File Size Description
0275_20100814_160206_Melville.all.mb58.gz 89.05MB Kongsberg multibeam vendor format
0276_20100814_163210_Melville.all.mb58.gz 51.68MB Kongsberg multibeam vendor format
0277_20100814_170207_Melville.all.mb58.gz 59.10MB Kongsberg multibeam vendor format
0278_20100814_173209_Melville.all.mb58.gz 69.44MB Kongsberg multibeam vendor format
0279_20100814_180207_Melville.all.mb58.gz 72.61MB Kongsberg multibeam vendor format
0280_20100814_183206_Melville.all.mb58.gz 82.76MB Kongsberg multibeam vendor format
0281_20100814_190206_Melville.all.mb58.gz 53.80MB Kongsberg multibeam vendor format
0282_20100814_193212_Melville.all.mb58.gz 48.83MB Kongsberg multibeam vendor format
0283_20100814_200208_Melville.all.mb58.gz 3.15MB Kongsberg multibeam vendor format
0284_20100815_011431_Melville.all.mb58.gz 33.3KB Kongsberg multibeam vendor format
0285_20100815_011445_Melville.all.mb58.gz 52.13MB Kongsberg multibeam vendor format
0286_20100815_014440_Melville.all.mb58.gz 57.85MB Kongsberg multibeam vendor format
0287_20100815_021438_Melville.all.mb58.gz 59.25MB Kongsberg multibeam vendor format
0288_20100815_024439_Melville.all.mb58.gz 58.41MB Kongsberg multibeam vendor format
0289_20100815_031440_Melville.all.mb58.gz 60.84MB Kongsberg multibeam vendor format
0290_20100815_034441_Melville.all.mb58.gz 59.76MB Kongsberg multibeam vendor format
0291_20100815_041439_Melville.all.mb58.gz 56.77MB Kongsberg multibeam vendor format
0292_20100815_044439_Melville.all.mb58.gz 13.62MB Kongsberg multibeam vendor format
0293_20100815_060224_Melville.all.mb58.gz 54.63MB Kongsberg multibeam vendor format
0294_20100815_063226_Melville.all.mb58.gz 54.88MB Kongsberg multibeam vendor format
0295_20100815_070226_Melville.all.mb58.gz 54.95MB Kongsberg multibeam vendor format
0296_20100815_073225_Melville.all.mb58.gz 15.45MB Kongsberg multibeam vendor format
0297_20100815_090218_Melville.all.mb58.gz 54.68MB Kongsberg multibeam vendor format
0298_20100815_093217_Melville.all.mb58.gz 53.13MB Kongsberg multibeam vendor format
0299_20100815_100223_Melville.all.mb58.gz 57.38MB Kongsberg multibeam vendor format
0300_20100815_103220_Melville.all.mb58.gz 59.73MB Kongsberg multibeam vendor format
0301_20100815_110221_Melville.all.mb58.gz 10.04MB Kongsberg multibeam vendor format
0302_20100815_120417_Melville.all.mb58.gz 62.74MB Kongsberg multibeam vendor format
0303_20100815_123405_Melville.all.mb58.gz 63.48MB Kongsberg multibeam vendor format
0304_20100815_130406_Melville.all.mb58.gz 53.00MB Kongsberg multibeam vendor format
0305_20100815_145325_Melville.all.mb58.gz 55.88MB Kongsberg multibeam vendor format
0306_20100815_152326_Melville.all.mb58.gz 71.80MB Kongsberg multibeam vendor format
0307_20100815_155325_Melville.all.mb58.gz 72.30MB Kongsberg multibeam vendor format
0308_20100815_162325_Melville.all.mb58.gz 57.83MB Kongsberg multibeam vendor format
0309_20100815_165329_Melville.all.mb58.gz 57.42MB Kongsberg multibeam vendor format
0310_20100815_172325_Melville.all.mb58.gz 58.63MB Kongsberg multibeam vendor format
0311_20100815_175326_Melville.all.mb58.gz 5.77MB Kongsberg multibeam vendor format
0312_20100815_185623_Melville.all.mb58.gz 14.42MB Kongsberg multibeam vendor format
0313_20100815_190359_Melville.all.mb58.gz 1.15MB Kongsberg multibeam vendor format
0314_20100815_190434_Melville.all.mb58.gz 61.52MB Kongsberg multibeam vendor format
0315_20100815_193435_Melville.all.mb58.gz 59.20MB Kongsberg multibeam vendor format
0316_20100815_200436_Melville.all.mb58.gz 51.88MB Kongsberg multibeam vendor format
0317_20100815_203440_Melville.all.mb58.gz 48.90MB Kongsberg multibeam vendor format
0318_20100815_210439_Melville.all.mb58.gz 41.61MB Kongsberg multibeam vendor format
0319_20100815_213439_Melville.all.mb58.gz 40.90MB Kongsberg multibeam vendor format
0320_20100815_220441_Melville.all.mb58.gz 40.83MB Kongsberg multibeam vendor format
0321_20100815_223437_Melville.all.mb58.gz 41.09MB Kongsberg multibeam vendor format
0322_20100815_230444_Melville.all.mb58.gz 40.93MB Kongsberg multibeam vendor format
0323_20100815_233445_Melville.all.mb58.gz 40.51MB Kongsberg multibeam vendor format
0324_20100816_000435_Melville.all.mb58.gz 41.04MB Kongsberg multibeam vendor format
0325_20100816_003440_Melville.all.mb58.gz 40.60MB Kongsberg multibeam vendor format
0326_20100816_010445_Melville.all.mb58.gz 38.59MB Kongsberg multibeam vendor format
0326_20100816_013447_Melville.all.mb58.gz 39.67MB Kongsberg multibeam vendor format
0327_20100816_020442_Melville.all.mb58.gz 0.54MB Kongsberg multibeam vendor format
0328_20100816_052158_Melville.all.mb58.gz 39.15MB Kongsberg multibeam vendor format
0329_20100816_055211_Melville.all.mb58.gz 38.98MB Kongsberg multibeam vendor format
0330_20100816_062206_Melville.all.mb58.gz 41.43MB Kongsberg multibeam vendor format
0331_20100816_065208_Melville.all.mb58.gz 40.77MB Kongsberg multibeam vendor format
0332_20100816_072208_Melville.all.mb58.gz 40.79MB Kongsberg multibeam vendor format
0333_20100816_075210_Melville.all.mb58.gz 40.79MB Kongsberg multibeam vendor format
0334_20100816_082206_Melville.all.mb58.gz 40.68MB Kongsberg multibeam vendor format
0335_20100816_085207_Melville.all.mb58.gz 40.05MB Kongsberg multibeam vendor format
0336_20100816_092212_Melville.all.mb58.gz 40.49MB Kongsberg multibeam vendor format
0337_20100816_095202_Melville.all.mb58.gz 40.89MB Kongsberg multibeam vendor format
0338_20100816_102210_Melville.all.mb58.gz 40.74MB Kongsberg multibeam vendor format
0339_20100816_105208_Melville.all.mb58.gz 23.90MB Kongsberg multibeam vendor format
0340_20100816_133742_Melville.all.mb58.gz 40.88MB Kongsberg multibeam vendor format
0341_20100816_140754_Melville.all.mb58.gz 41.02MB Kongsberg multibeam vendor format
0342_20100816_143745_Melville.all.mb58.gz 40.81MB Kongsberg multibeam vendor format
0343_20100816_150743_Melville.all.mb58.gz 41.34MB Kongsberg multibeam vendor format
0344_20100816_153753_Melville.all.mb58.gz 39.71MB Kongsberg multibeam vendor format
0345_20100816_160754_Melville.all.mb58.gz 39.95MB Kongsberg multibeam vendor format
0346_20100816_163744_Melville.all.mb58.gz 16.29MB Kongsberg multibeam vendor format
0347_20100816_194712_Melville.all.mb58.gz 40.61MB Kongsberg multibeam vendor format
0348_20100816_201713_Melville.all.mb58.gz 39.88MB Kongsberg multibeam vendor format
0349_20100816_204706_Melville.all.mb58.gz 40.71MB Kongsberg multibeam vendor format
0350_20100816_211710_Melville.all.mb58.gz 40.70MB Kongsberg multibeam vendor format
0351_20100816_214709_Melville.all.mb58.gz 41.24MB Kongsberg multibeam vendor format
0352_20100816_221707_Melville.all.mb58.gz 40.41MB Kongsberg multibeam vendor format
0353_20100816_224713_Melville.all.mb58.gz 39.78MB Kongsberg multibeam vendor format
0354_20100816_231701_Melville.all.mb58.gz 41.09MB Kongsberg multibeam vendor format
0355_20100816_234702_Melville.all.mb58.gz 29.48MB Kongsberg multibeam vendor format
0356_20100817_024217_Melville.all.mb58.gz 40.26MB Kongsberg multibeam vendor format
0357_20100817_031209_Melville.all.mb58.gz 40.88MB Kongsberg multibeam vendor format
0358_20100817_034217_Melville.all.mb58.gz 40.20MB Kongsberg multibeam vendor format
0359_20100817_041208_Melville.all.mb58.gz 40.46MB Kongsberg multibeam vendor format
0360_20100817_044218_Melville.all.mb58.gz 40.09MB Kongsberg multibeam vendor format
0361_20100817_051212_Melville.all.mb58.gz 40.86MB Kongsberg multibeam vendor format
0362_20100817_054220_Melville.all.mb58.gz 14.76MB Kongsberg multibeam vendor format
0363_20100817_082400_Melville.all.mb58.gz 40.90MB Kongsberg multibeam vendor format
0364_20100817_085351_Melville.all.mb58.gz 41.68MB Kongsberg multibeam vendor format
0365_20100817_092402_Melville.all.mb58.gz 39.83MB Kongsberg multibeam vendor format
0366_20100817_095355_Melville.all.mb58.gz 40.77MB Kongsberg multibeam vendor format
0367_20100817_102357_Melville.all.mb58.gz 39.75MB Kongsberg multibeam vendor format
0368_20100817_105405_Melville.all.mb58.gz 39.45MB Kongsberg multibeam vendor format
0369_20100817_112357_Melville.all.mb58.gz 38.71MB Kongsberg multibeam vendor format
0370_20100817_144420_Melville.all.mb58.gz 39.53MB Kongsberg multibeam vendor format
0371_20100817_151422_Melville.all.mb58.gz 39.89MB Kongsberg multibeam vendor format
0372_20100817_154432_Melville.all.mb58.gz 39.24MB Kongsberg multibeam vendor format
0373_20100817_161429_Melville.all.mb58.gz 39.35MB Kongsberg multibeam vendor format
0374_20100817_164430_Melville.all.mb58.gz 39.82MB Kongsberg multibeam vendor format
0375_20100817_171437_Melville.all.mb58.gz 39.78MB Kongsberg multibeam vendor format
0376_20100817_174429_Melville.all.mb58.gz 39.78MB Kongsberg multibeam vendor format
0377_20100817_181422_Melville.all.mb58.gz 25.19MB Kongsberg multibeam vendor format
0378_20100817_210244_Melville.all.mb58.gz 39.63MB Kongsberg multibeam vendor format
0379_20100817_213234_Melville.all.mb58.gz 39.99MB Kongsberg multibeam vendor format
0380_20100817_220245_Melville.all.mb58.gz 39.47MB Kongsberg multibeam vendor format
0381_20100817_223233_Melville.all.mb58.gz 40.11MB Kongsberg multibeam vendor format
0382_20100817_230238_Melville.all.mb58.gz 39.75MB Kongsberg multibeam vendor format
0383_20100817_233234_Melville.all.mb58.gz 39.75MB Kongsberg multibeam vendor format
0384_20100818_000234_Melville.all.mb58.gz 40.98MB Kongsberg multibeam vendor format
0385_20100818_003238_Melville.all.mb58.gz 39.83MB Kongsberg multibeam vendor format
0386_20100818_010245_Melville.all.mb58.gz 4.42MB Kongsberg multibeam vendor format
0387_20100818_041304_Melville.all.mb58.gz 38.93MB Kongsberg multibeam vendor format
0388_20100818_044255_Melville.all.mb58.gz 40.13MB Kongsberg multibeam vendor format
0389_20100818_051302_Melville.all.mb58.gz 39.78MB Kongsberg multibeam vendor format
0390_20100818_054300_Melville.all.mb58.gz 40.87MB Kongsberg multibeam vendor format
0391_20100818_061301_Melville.all.mb58.gz 39.97MB Kongsberg multibeam vendor format
0392_20100818_064301_Melville.all.mb58.gz 40.56MB Kongsberg multibeam vendor format
0393_20100818_071303_Melville.all.mb58.gz 39.71MB Kongsberg multibeam vendor format
0394_20100818_074256_Melville.all.mb58.gz 18.29MB Kongsberg multibeam vendor format
0395_20100818_110817_Melville.all.mb58.gz 38.24MB Kongsberg multibeam vendor format
0396_20100818_113818_Melville.all.mb58.gz 39.67MB Kongsberg multibeam vendor format
0397_20100818_120807_Melville.all.mb58.gz 41.32MB Kongsberg multibeam vendor format
0398_20100818_123810_Melville.all.mb58.gz 41.32MB Kongsberg multibeam vendor format
0399_20100818_130812_Melville.all.mb58.gz 41.13MB Kongsberg multibeam vendor format
0400_20100818_133812_Melville.all.mb58.gz 38.82MB Kongsberg multibeam vendor format
0401_20100818_140807_Melville.all.mb58.gz 38.76MB Kongsberg multibeam vendor format
0402_20100818_143809_Melville.all.mb58.gz 39.63MB Kongsberg multibeam vendor format
0403_20100818_150811_Melville.all.mb58.gz 3.76MB Kongsberg multibeam vendor format
0404_20100818_180428_Melville.all.mb58.gz 39.37MB Kongsberg multibeam vendor format
0405_20100818_183427_Melville.all.mb58.gz 38.48MB Kongsberg multibeam vendor format
0406_20100818_190421_Melville.all.mb58.gz 40.59MB Kongsberg multibeam vendor format
0407_20100818_193424_Melville.all.mb58.gz 38.51MB Kongsberg multibeam vendor format
0408_20100818_200416_Melville.all.mb58.gz 39.53MB Kongsberg multibeam vendor format
0409_20100818_203417_Melville.all.mb58.gz 39.36MB Kongsberg multibeam vendor format
0410_20100818_210429_Melville.all.mb58.gz 39.74MB Kongsberg multibeam vendor format
0411_20100818_213421_Melville.all.mb58.gz 39.51MB Kongsberg multibeam vendor format
0412_20100818_220420_Melville.all.mb58.gz 40.06MB Kongsberg multibeam vendor format
0413_20100818_223425_Melville.all.mb58.gz 39.31MB Kongsberg multibeam vendor format
0414_20100818_230421_Melville.all.mb58.gz 40.26MB Kongsberg multibeam vendor format
0415_20100818_233423_Melville.all.mb58.gz 38.40MB Kongsberg multibeam vendor format
0416_20100819_000421_Melville.all.mb58.gz 39.35MB Kongsberg multibeam vendor format
0417_20100819_003420_Melville.all.mb58.gz 39.98MB Kongsberg multibeam vendor format
0418_20100819_010431_Melville.all.mb58.gz 40.08MB Kongsberg multibeam vendor format
0419_20100819_013423_Melville.all.mb58.gz 39.07MB Kongsberg multibeam vendor format
0420_20100819_020433_Melville.all.mb58.gz 38.58MB Kongsberg multibeam vendor format
0421_20100819_023432_Melville.all.mb58.gz 39.48MB Kongsberg multibeam vendor format
0422_20100819_030420_Melville.all.mb58.gz 12.53MB Kongsberg multibeam vendor format
0423_20100819_061006_Melville.all.mb58.gz 39.74MB Kongsberg multibeam vendor format
0424_20100819_064006_Melville.all.mb58.gz 38.83MB Kongsberg multibeam vendor format
0425_20100819_071004_Melville.all.mb58.gz 38.80MB Kongsberg multibeam vendor format
0426_20100819_074003_Melville.all.mb58.gz 38.25MB Kongsberg multibeam vendor format
0427_20100819_080955_Melville.all.mb58.gz 41.42MB Kongsberg multibeam vendor format
0428_20100819_083956_Melville.all.mb58.gz 40.50MB Kongsberg multibeam vendor format
0429_20100819_091000_Melville.all.mb58.gz 40.03MB Kongsberg multibeam vendor format
0430_20100819_094007_Melville.all.mb58.gz 40.17MB Kongsberg multibeam vendor format
0431_20100819_101004_Melville.all.mb58.gz 7.57MB Kongsberg multibeam vendor format
0432_20100819_131057_Melville.all.mb58.gz 40.20MB Kongsberg multibeam vendor format
0433_20100819_134103_Melville.all.mb58.gz 2.94MB Kongsberg multibeam vendor format
0434_20100819_134537_Melville.all.mb58.gz 40.24MB Kongsberg multibeam vendor format
0435_20100819_141544_Melville.all.mb58.gz 40.20MB Kongsberg multibeam vendor format
0436_20100819_144547_Melville.all.mb58.gz 39.73MB Kongsberg multibeam vendor format
0437_20100819_151553_Melville.all.mb58.gz 40.63MB Kongsberg multibeam vendor format
0438_20100819_154550_Melville.all.mb58.gz 39.93MB Kongsberg multibeam vendor format
0439_20100819_161550_Melville.all.mb58.gz 39.08MB Kongsberg multibeam vendor format
0440_20100819_164546_Melville.all.mb58.gz 39.97MB Kongsberg multibeam vendor format
0441_20100819_171547_Melville.all.mb58.gz 39.17MB Kongsberg multibeam vendor format
0442_20100819_174551_Melville.all.mb58.gz 39.57MB Kongsberg multibeam vendor format
0443_20100819_181547_Melville.all.mb58.gz 39.23MB Kongsberg multibeam vendor format
0444_20100819_184543_Melville.all.mb58.gz 39.57MB Kongsberg multibeam vendor format
0445_20100819_191551_Melville.all.mb58.gz 38.94MB Kongsberg multibeam vendor format
0446_20100819_194539_Melville.all.mb58.gz 40.15MB Kongsberg multibeam vendor format
0447_20100819_201548_Melville.all.mb58.gz 38.81MB Kongsberg multibeam vendor format
0448_20100819_204545_Melville.all.mb58.gz 39.12MB Kongsberg multibeam vendor format
0449_20100819_211540_Melville.all.mb58.gz 39.82MB Kongsberg multibeam vendor format
0450_20100819_214549_Melville.all.mb58.gz 10.86MB Kongsberg multibeam vendor format
0451_20100820_010915_Melville.all.mb58.gz 39.99MB Kongsberg multibeam vendor format
0452_20100820_013911_Melville.all.mb58.gz 40.33MB Kongsberg multibeam vendor format
0453_20100820_020910_Melville.all.mb58.gz 39.43MB Kongsberg multibeam vendor format
0454_20100820_023906_Melville.all.mb58.gz 40.15MB Kongsberg multibeam vendor format
0455_20100820_030905_Melville.all.mb58.gz 40.29MB Kongsberg multibeam vendor format
0456_20100820_033913_Melville.all.mb58.gz 40.13MB Kongsberg multibeam vendor format
0457_20100820_040905_Melville.all.mb58.gz 40.03MB Kongsberg multibeam vendor format
0458_20100820_043908_Melville.all.mb58.gz 15.66MB Kongsberg multibeam vendor format
0459_20100820_080536_Melville.all.mb58.gz 39.47MB Kongsberg multibeam vendor format
0460_20100820_083525_Melville.all.mb58.gz 39.94MB Kongsberg multibeam vendor format
0461_20100820_090535_Melville.all.mb58.gz 39.74MB Kongsberg multibeam vendor format
0462_20100820_093535_Melville.all.mb58.gz 39.90MB Kongsberg multibeam vendor format
0463_20100820_100525_Melville.all.mb58.gz 40.49MB Kongsberg multibeam vendor format
0464_20100820_103533_Melville.all.mb58.gz 39.52MB Kongsberg multibeam vendor format
0465_20100820_110529_Melville.all.mb58.gz 40.21MB Kongsberg multibeam vendor format
0466_20100820_113538_Melville.all.mb58.gz 40.26MB Kongsberg multibeam vendor format
0467_20100820_120530_Melville.all.mb58.gz 0.72MB Kongsberg multibeam vendor format
0468_20100820_145443_Melville.all.mb58.gz 39.82MB Kongsberg multibeam vendor format
0469_20100820_152437_Melville.all.mb58.gz 40.62MB Kongsberg multibeam vendor format
0470_20100820_155437_Melville.all.mb58.gz 40.85MB Kongsberg multibeam vendor format
0471_20100820_162442_Melville.all.mb58.gz 40.46MB Kongsberg multibeam vendor format
0472_20100820_165435_Melville.all.mb58.gz 40.22MB Kongsberg multibeam vendor format
0473_20100820_172432_Melville.all.mb58.gz 40.59MB Kongsberg multibeam vendor format
0474_20100820_175435_Melville.all.mb58.gz 29.58MB Kongsberg multibeam vendor format
0475_20100820_204033_Melville.all.mb58.gz 40.60MB Kongsberg multibeam vendor format
0476_20100820_211038_Melville.all.mb58.gz 40.73MB Kongsberg multibeam vendor format
0477_20100820_214038_Melville.all.mb58.gz 1.00MB Kongsberg multibeam vendor format
0478_20100820_214727_Melville.all.mb58.gz 77.5KB Kongsberg multibeam vendor format
0479_20100820_215347_Melville.all.mb58.gz 41.14MB Kongsberg multibeam vendor format
0480_20100820_222358_Melville.all.mb58.gz 41.13MB Kongsberg multibeam vendor format
0481_20100820_225355_Melville.all.mb58.gz 40.67MB Kongsberg multibeam vendor format
0482_20100821_014927_Melville.all.mb58.gz 41.36MB Kongsberg multibeam vendor format
0483_20100821_021924_Melville.all.mb58.gz 42.03MB Kongsberg multibeam vendor format
0484_20100821_024921_Melville.all.mb58.gz 42.98MB Kongsberg multibeam vendor format
0485_20100821_031914_Melville.all.mb58.gz 45.08MB Kongsberg multibeam vendor format
0486_20100821_034922_Melville.all.mb58.gz 46.46MB Kongsberg multibeam vendor format
0487_20100821_054433_Melville.all.mb58.gz 48.39MB Kongsberg multibeam vendor format
0488_20100821_061421_Melville.all.mb58.gz 56.98MB Kongsberg multibeam vendor format
0489_20100821_064421_Melville.all.mb58.gz 47.59MB Kongsberg multibeam vendor format
0490_20100821_071421_Melville.all.mb58.gz 43.81MB Kongsberg multibeam vendor format
0491_20100821_074427_Melville.all.mb58.gz 40.83MB Kongsberg multibeam vendor format
0492_20100821_081421_Melville.all.mb58.gz 41.70MB Kongsberg multibeam vendor format
0493_20100821_084428_Melville.all.mb58.gz 41.76MB Kongsberg multibeam vendor format
0494_20100821_091420_Melville.all.mb58.gz 32.41MB Kongsberg multibeam vendor format
0495_20100821_120112_Melville.all.mb58.gz 42.71MB Kongsberg multibeam vendor format
0496_20100821_123118_Melville.all.mb58.gz 48.00MB Kongsberg multibeam vendor format
0497_20100821_130113_Melville.all.mb58.gz 44.54MB Kongsberg multibeam vendor format
0498_20100821_133122_Melville.all.mb58.gz 42.90MB Kongsberg multibeam vendor format
0499_20100821_140115_Melville.all.mb58.gz 41.41MB Kongsberg multibeam vendor format
0500_20100821_143124_Melville.all.mb58.gz 41.31MB Kongsberg multibeam vendor format
0501_20100821_150113_Melville.all.mb58.gz 44.50MB Kongsberg multibeam vendor format
0502_20100821_153115_Melville.all.mb58.gz 43.71MB Kongsberg multibeam vendor format
0503_20100821_160116_Melville.all.mb58.gz 41.34MB Kongsberg multibeam vendor format
0504_20100821_163112_Melville.all.mb58.gz 40.22MB Kongsberg multibeam vendor format
0505_20100821_170114_Melville.all.mb58.gz 40.50MB Kongsberg multibeam vendor format
0506_20100821_173113_Melville.all.mb58.gz 40.46MB Kongsberg multibeam vendor format
0507_20100821_180125_Melville.all.mb58.gz 40.12MB Kongsberg multibeam vendor format
0508_20100821_183114_Melville.all.mb58.gz 40.06MB Kongsberg multibeam vendor format
0509_20100821_190117_Melville.all.mb58.gz 40.49MB Kongsberg multibeam vendor format
0510_20100821_193116_Melville.all.mb58.gz 40.33MB Kongsberg multibeam vendor format
0511_20100821_200121_Melville.all.mb58.gz 40.35MB Kongsberg multibeam vendor format
0512_20100821_203125_Melville.all.mb58.gz 39.84MB Kongsberg multibeam vendor format
0513_20100821_210112_Melville.all.mb58.gz 40.09MB Kongsberg multibeam vendor format
0514_20100821_213118_Melville.all.mb58.gz 40.25MB Kongsberg multibeam vendor format
0515_20100821_220115_Melville.all.mb58.gz 40.11MB Kongsberg multibeam vendor format
0516_20100821_223124_Melville.all.mb58.gz 39.87MB Kongsberg multibeam vendor format
0517_20100821_230126_Melville.all.mb58.gz 39.80MB Kongsberg multibeam vendor format
0518_20100821_233123_Melville.all.mb58.gz 40.65MB Kongsberg multibeam vendor format
0519_20100822_000122_Melville.all.mb58.gz 40.79MB Kongsberg multibeam vendor format
0520_20100822_003123_Melville.all.mb58.gz 40.54MB Kongsberg multibeam vendor format
0521_20100822_010112_Melville.all.mb58.gz 41.18MB Kongsberg multibeam vendor format
0522_20100822_013116_Melville.all.mb58.gz 41.85MB Kongsberg multibeam vendor format
0523_20100822_020118_Melville.all.mb58.gz 41.21MB Kongsberg multibeam vendor format
0524_20100822_023123_Melville.all.mb58.gz 41.40MB Kongsberg multibeam vendor format
0525_20100822_030123_Melville.all.mb58.gz 40.96MB Kongsberg multibeam vendor format
0526_20100822_033123_Melville.all.mb58.gz 40.80MB Kongsberg multibeam vendor format
0527_20100822_040117_Melville.all.mb58.gz 40.71MB Kongsberg multibeam vendor format
0528_20100822_043116_Melville.all.mb58.gz 41.23MB Kongsberg multibeam vendor format
0529_20100822_050124_Melville.all.mb58.gz 40.98MB Kongsberg multibeam vendor format
0530_20100822_053115_Melville.all.mb58.gz 41.05MB Kongsberg multibeam vendor format
0531_20100822_060114_Melville.all.mb58.gz 42.59MB Kongsberg multibeam vendor format
0532_20100822_063118_Melville.all.mb58.gz 43.77MB Kongsberg multibeam vendor format
0533_20100822_070121_Melville.all.mb58.gz 43.01MB Kongsberg multibeam vendor format
0534_20100822_073114_Melville.all.mb58.gz 43.85MB Kongsberg multibeam vendor format
0535_20100822_080113_Melville.all.mb58.gz 48.98MB Kongsberg multibeam vendor format
0536_20100822_083116_Melville.all.mb58.gz 53.34MB Kongsberg multibeam vendor format
0537_20100822_090111_Melville.all.mb58.gz 55.80MB Kongsberg multibeam vendor format
0538_20100822_093111_Melville.all.mb58.gz 58.84MB Kongsberg multibeam vendor format
0539_20100822_100111_Melville.all.mb58.gz 25.70MB Kongsberg multibeam vendor format
0540_20100822_101600_Melville.all.mb58.gz 59.44MB Kongsberg multibeam vendor format
0541_20100822_104603_Melville.all.mb58.gz 43.59MB Kongsberg multibeam vendor format
0542_20100822_121715_Melville.all.mb58.gz 0.84MB Kongsberg multibeam vendor format
0543_20100822_121946_Melville.all.mb58.gz 6.29MB Kongsberg multibeam vendor format
0544_20100822_122805_Melville.all.mb58.gz 0.93MB Kongsberg multibeam vendor format
0545_20100822_123029_Melville.all.mb58.gz 1.07MB Kongsberg multibeam vendor format
0546_20100822_123542_Melville.all.mb58.gz 1.44MB Kongsberg multibeam vendor format
0547_20100822_123811_Melville.all.mb58.gz 2.57MB Kongsberg multibeam vendor format
0548_20100822_124838_Melville.all.mb58.gz 3.84MB Kongsberg multibeam vendor format
0549_20100822_125312_Melville.all.mb58.gz 2.82MB Kongsberg multibeam vendor format
0550_20100822_125917_Melville.all.mb58.gz 56.89MB Kongsberg multibeam vendor format
0551_20100822_132917_Melville.all.mb58.gz 55.60MB Kongsberg multibeam vendor format
0552_20100822_135919_Melville.all.mb58.gz 55.97MB Kongsberg multibeam vendor format
0553_20100822_142917_Melville.all.mb58.gz 68.59MB Kongsberg multibeam vendor format
0554_20100822_145914_Melville.all.mb58.gz 70.19MB Kongsberg multibeam vendor format
0555_20100822_152914_Melville.all.mb58.gz 75.81MB Kongsberg multibeam vendor format
0556_20100822_155913_Melville.all.mb58.gz 74.83MB Kongsberg multibeam vendor format
0557_20100822_162915_Melville.all.mb58.gz 64.55MB Kongsberg multibeam vendor format
0558_20100822_165914_Melville.all.mb58.gz 67.07MB Kongsberg multibeam vendor format
0559_20100822_172915_Melville.all.mb58.gz 64.51MB Kongsberg multibeam vendor format
0560_20100822_175915_Melville.all.mb58.gz 65.39MB Kongsberg multibeam vendor format
0561_20100822_182916_Melville.all.mb58.gz 61.96MB Kongsberg multibeam vendor format
0562_20100822_185915_Melville.all.mb58.gz 67.21MB Kongsberg multibeam vendor format
0563_20100822_192914_Melville.all.mb58.gz 78.14MB Kongsberg multibeam vendor format
0564_20100822_195914_Melville.all.mb58.gz 74.27MB Kongsberg multibeam vendor format
0565_20100822_202913_Melville.all.mb58.gz 72.67MB Kongsberg multibeam vendor format
0566_20100822_205914_Melville.all.mb58.gz 81.69MB Kongsberg multibeam vendor format
0567_20100822_212914_Melville.all.mb58.gz 62.83MB Kongsberg multibeam vendor format
0568_20100822_215914_Melville.all.mb58.gz 20.17MB Kongsberg multibeam vendor format
0569_20100822_230451_Melville.all.mb58.gz 61.53MB Kongsberg multibeam vendor format
0570_20100822_233454_Melville.all.mb58.gz 85.84MB Kongsberg multibeam vendor format
0571_20100823_000452_Melville.all.mb58.gz 72.33MB Kongsberg multibeam vendor format
0572_20100823_003453_Melville.all.mb58.gz 59.92MB Kongsberg multibeam vendor format
0573_20100823_010452_Melville.all.mb58.gz 57.54MB Kongsberg multibeam vendor format
0574_20100823_013455_Melville.all.mb58.gz 58.79MB Kongsberg multibeam vendor format
0575_20100823_020452_Melville.all.mb58.gz 59.34MB Kongsberg multibeam vendor format
0576_20100823_023455_Melville.all.mb58.gz 56.91MB Kongsberg multibeam vendor format
0577_20100823_030454_Melville.all.mb58.gz 56.05MB Kongsberg multibeam vendor format
0578_20100823_033452_Melville.all.mb58.gz 54.51MB Kongsberg multibeam vendor format
0579_20100823_040453_Melville.all.mb58.gz 54.70MB Kongsberg multibeam vendor format
0580_20100823_043455_Melville.all.mb58.gz 51.93MB Kongsberg multibeam vendor format
0581_20100823_050455_Melville.all.mb58.gz 55.37MB Kongsberg multibeam vendor format
0582_20100823_053453_Melville.all.mb58.gz 56.32MB Kongsberg multibeam vendor format
0583_20100823_060451_Melville.all.mb58.gz 52.45MB Kongsberg multibeam vendor format
0584_20100823_063455_Melville.all.mb58.gz 53.00MB Kongsberg multibeam vendor format
0585_20100823_070454_Melville.all.mb58.gz 54.11MB Kongsberg multibeam vendor format
0586_20100823_073451_Melville.all.mb58.gz 56.47MB Kongsberg multibeam vendor format
0587_20100823_080455_Melville.all.mb58.gz 56.03MB Kongsberg multibeam vendor format
0588_20100823_083454_Melville.all.mb58.gz 53.99MB Kongsberg multibeam vendor format
0589_20100823_090457_Melville.all.mb58.gz 52.07MB Kongsberg multibeam vendor format
0590_20100823_093454_Melville.all.mb58.gz 52.37MB Kongsberg multibeam vendor format
0591_20100823_100453_Melville.all.mb58.gz 53.91MB Kongsberg multibeam vendor format
0592_20100823_103453_Melville.all.mb58.gz 54.48MB Kongsberg multibeam vendor format
0593_20100823_110451_Melville.all.mb58.gz 52.89MB Kongsberg multibeam vendor format
0594_20100823_113452_Melville.all.mb58.gz 53.89MB Kongsberg multibeam vendor format
0595_20100823_120452_Melville.all.mb58.gz 55.04MB Kongsberg multibeam vendor format
0596_20100823_123452_Melville.all.mb58.gz 54.89MB Kongsberg multibeam vendor format
0597_20100823_130451_Melville.all.mb58.gz 54.45MB Kongsberg multibeam vendor format
0598_20100823_133453_Melville.all.mb58.gz 55.26MB Kongsberg multibeam vendor format
0599_20100823_140451_Melville.all.mb58.gz 58.36MB Kongsberg multibeam vendor format
0600_20100823_143453_Melville.all.mb58.gz 58.51MB Kongsberg multibeam vendor format
0601_20100823_150452_Melville.all.mb58.gz 55.87MB Kongsberg multibeam vendor format
0602_20100823_153452_Melville.all.mb58.gz 55.59MB Kongsberg multibeam vendor format
0603_20100823_160453_Melville.all.mb58.gz 57.26MB Kongsberg multibeam vendor format
0604_20100823_163452_Melville.all.mb58.gz 56.96MB Kongsberg multibeam vendor format
0605_20100823_170455_Melville.all.mb58.gz 54.63MB Kongsberg multibeam vendor format
0606_20100823_173452_Melville.all.mb58.gz 55.84MB Kongsberg multibeam vendor format
0607_20100823_180454_Melville.all.mb58.gz 56.02MB Kongsberg multibeam vendor format
0608_20100823_183455_Melville.all.mb58.gz 56.10MB Kongsberg multibeam vendor format
0609_20100823_190454_Melville.all.mb58.gz 55.70MB Kongsberg multibeam vendor format
0610_20100823_193452_Melville.all.mb58.gz 61.95MB Kongsberg multibeam vendor format
0611_20100823_200451_Melville.all.mb58.gz 74.56MB Kongsberg multibeam vendor format
0612_20100823_203452_Melville.all.mb58.gz 69.37MB Kongsberg multibeam vendor format
0613_20100823_210451_Melville.all.mb58.gz 96.26MB Kongsberg multibeam vendor format
0614_20100823_213450_Melville.all.mb58.gz 134.79MB Kongsberg multibeam vendor format
0615_20100823_220450_Melville.all.mb58.gz 82.59MB Kongsberg multibeam vendor format
0616_20100823_223451_Melville.all.mb58.gz 72.81MB Kongsberg multibeam vendor format
0617_20100823_230450_Melville.all.mb58.gz 139.51MB Kongsberg multibeam vendor format
0618_20100823_233449_Melville.all.mb58.gz 117.11MB Kongsberg multibeam vendor format
0619_20100824_000450_Melville.all.mb58.gz 81.55MB Kongsberg multibeam vendor format
0620_20100824_003451_Melville.all.mb58.gz 79.57MB Kongsberg multibeam vendor format
0621_20100824_010451_Melville.all.mb58.gz 112.29MB Kongsberg multibeam vendor format
0622_20100824_013450_Melville.all.mb58.gz 138.57MB Kongsberg multibeam vendor format
0623_20100824_020450_Melville.all.mb58.gz 135.46MB Kongsberg multibeam vendor format
0624_20100824_023450_Melville.all.mb58.gz 86.14MB Kongsberg multibeam vendor format
0625_20100824_030453_Melville.all.mb58.gz 54.18MB Kongsberg multibeam vendor format
0626_20100824_033451_Melville.all.mb58.gz 52.28MB Kongsberg multibeam vendor format
0627_20100824_040457_Melville.all.mb58.gz 21.55MB Kongsberg multibeam vendor format
0628_20100824_060322_Melville.all.mb58.gz 49.29MB Kongsberg multibeam vendor format
0629_20100824_063313_Melville.all.mb58.gz 54.41MB Kongsberg multibeam vendor format
0630_20100824_070312_Melville.all.mb58.gz 54.64MB Kongsberg multibeam vendor format
0631_20100824_073313_Melville.all.mb58.gz 61.07MB Kongsberg multibeam vendor format
0632_20100824_080311_Melville.all.mb58.gz 55.73MB Kongsberg multibeam vendor format
0633_20100824_083312_Melville.all.mb58.gz 51.02MB Kongsberg multibeam vendor format
0634_20100824_090311_Melville.all.mb58.gz 51.08MB Kongsberg multibeam vendor format
0635_20100824_093313_Melville.all.mb58.gz 47.94MB Kongsberg multibeam vendor format
0636_20100824_112744_Melville.all.mb58.gz 50.90MB Kongsberg multibeam vendor format
0637_20100824_115751_Melville.all.mb58.gz 55.07MB Kongsberg multibeam vendor format
0638_20100824_122747_Melville.all.mb58.gz 63.58MB Kongsberg multibeam vendor format
0639_20100824_125746_Melville.all.mb58.gz 39.18MB Kongsberg multibeam vendor format
0640_20100824_135616_Melville.all.mb58.gz 63.63MB Kongsberg multibeam vendor format
0641_20100824_142618_Melville.all.mb58.gz 63.24MB Kongsberg multibeam vendor format
0642_20100824_145618_Melville.all.mb58.gz 59.98MB Kongsberg multibeam vendor format
0643_20100824_152619_Melville.all.mb58.gz 59.50MB Kongsberg multibeam vendor format
0644_20100824_155618_Melville.all.mb58.gz 61.89MB Kongsberg multibeam vendor format
0645_20100824_162618_Melville.all.mb58.gz 62.89MB Kongsberg multibeam vendor format
0646_20100824_165617_Melville.all.mb58.gz 63.30MB Kongsberg multibeam vendor format
0647_20100824_172619_Melville.all.mb58.gz 23.49MB Kongsberg multibeam vendor format
0648_20100824_173852_Melville.all.mb58.gz 63.72MB Kongsberg multibeam vendor format
0649_20100824_180854_Melville.all.mb58.gz 65.20MB Kongsberg multibeam vendor format
0650_20100824_183852_Melville.all.mb58.gz 64.74MB Kongsberg multibeam vendor format
0651_20100824_190852_Melville.all.mb58.gz 63.51MB Kongsberg multibeam vendor format
0652_20100824_193855_Melville.all.mb58.gz 62.90MB Kongsberg multibeam vendor format
0653_20100824_200854_Melville.all.mb58.gz 62.69MB Kongsberg multibeam vendor format
0654_20100824_203852_Melville.all.mb58.gz 54.31MB Kongsberg multibeam vendor format
0655_20100824_215305_Melville.all.mb58.gz 7.86MB Kongsberg multibeam vendor format
0656_20100824_220152_Melville.all.mb58.gz 2.50MB Kongsberg multibeam vendor format
0657_20100824_221005_Melville.all.mb58.gz 62.64MB Kongsberg multibeam vendor format
0658_20100824_224002_Melville.all.mb58.gz 62.76MB Kongsberg multibeam vendor format
0659_20100824_231003_Melville.all.mb58.gz 63.32MB Kongsberg multibeam vendor format
0660_20100824_234005_Melville.all.mb58.gz 66.93MB Kongsberg multibeam vendor format
0661_20100825_001004_Melville.all.mb58.gz 63.35MB Kongsberg multibeam vendor format
0662_20100825_004002_Melville.all.mb58.gz 63.14MB Kongsberg multibeam vendor format
0663_20100825_011005_Melville.all.mb58.gz 40.97MB Kongsberg multibeam vendor format
0664_20100825_023030_Melville.all.mb58.gz 62.40MB Kongsberg multibeam vendor format
0665_20100825_030033_Melville.all.mb58.gz 62.79MB Kongsberg multibeam vendor format
0666_20100825_033032_Melville.all.mb58.gz 64.52MB Kongsberg multibeam vendor format
0667_20100825_040031_Melville.all.mb58.gz 69.60MB Kongsberg multibeam vendor format
0668_20100825_043032_Melville.all.mb58.gz 65.56MB Kongsberg multibeam vendor format
0669_20100825_050031_Melville.all.mb58.gz 63.70MB Kongsberg multibeam vendor format
0670_20100825_053030_Melville.all.mb58.gz 60.83MB Kongsberg multibeam vendor format
0671_20100825_060032_Melville.all.mb58.gz 61.42MB Kongsberg multibeam vendor format
0672_20100825_063033_Melville.all.mb58.gz 61.55MB Kongsberg multibeam vendor format
0673_20100825_070031_Melville.all.mb58.gz 63.71MB Kongsberg multibeam vendor format
0674_20100825_073034_Melville.all.mb58.gz 61.07MB Kongsberg multibeam vendor format
0675_20100825_080031_Melville.all.mb58.gz 64.01MB Kongsberg multibeam vendor format
0676_20100825_083032_Melville.all.mb58.gz 65.73MB Kongsberg multibeam vendor format
0677_20100825_090031_Melville.all.mb58.gz 64.86MB Kongsberg multibeam vendor format
0678_20100825_093031_Melville.all.mb58.gz 63.36MB Kongsberg multibeam vendor format
0679_20100825_100032_Melville.all.mb58.gz 60.53MB Kongsberg multibeam vendor format
0680_20100825_103033_Melville.all.mb58.gz 59.81MB Kongsberg multibeam vendor format
0681_20100825_110031_Melville.all.mb58.gz 73.98MB Kongsberg multibeam vendor format
0682_20100825_113031_Melville.all.mb58.gz 85.26MB Kongsberg multibeam vendor format
0683_20100825_120033_Melville.all.mb58.gz 58.91MB Kongsberg multibeam vendor format
0684_20100825_123030_Melville.all.mb58.gz 6.91MB Kongsberg multibeam vendor format
0684_20100825_123704_Melville.all.mb58.gz 56.73MB Kongsberg multibeam vendor format
0685_20100825_130706_Melville.all.mb58.gz 57.18MB Kongsberg multibeam vendor format
0686_20100825_133707_Melville.all.mb58.gz 58.10MB Kongsberg multibeam vendor format
0687_20100825_140709_Melville.all.mb58.gz 37.46MB Kongsberg multibeam vendor format
0688_20100825_152932_Melville.all.mb58.gz 58.10MB Kongsberg multibeam vendor format
0689_20100825_155922_Melville.all.mb58.gz 59.09MB Kongsberg multibeam vendor format
0690_20100825_162920_Melville.all.mb58.gz 59.70MB Kongsberg multibeam vendor format
0691_20100825_165920_Melville.all.mb58.gz 60.43MB Kongsberg multibeam vendor format
0692_20100825_172921_Melville.all.mb58.gz 6.97MB Kongsberg multibeam vendor format
0693_20100825_182102_Melville.all.mb58.gz 231.5KB Kongsberg multibeam vendor format
0694_20100825_182128_Melville.all.mb58.gz 60.34MB Kongsberg multibeam vendor format
0695_20100825_185132_Melville.all.mb58.gz 60.22MB Kongsberg multibeam vendor format
0696_20100825_192130_Melville.all.mb58.gz 59.95MB Kongsberg multibeam vendor format
0697_20100825_195129_Melville.all.mb58.gz 54.41MB Kongsberg multibeam vendor format
0698_20100825_210617_Melville.all.mb58.gz 60.08MB Kongsberg multibeam vendor format
0699_20100825_213621_Melville.all.mb58.gz 61.24MB Kongsberg multibeam vendor format
0700_20100825_220620_Melville.all.mb58.gz 60.33MB Kongsberg multibeam vendor format
0701_20100825_223617_Melville.all.mb58.gz 60.87MB Kongsberg multibeam vendor format
0702_20100825_230620_Melville.all.mb58.gz 63.28MB Kongsberg multibeam vendor format
0703_20100825_233617_Melville.all.mb58.gz 61.86MB Kongsberg multibeam vendor format
0704_20100826_000618_Melville.all.mb58.gz 61.29MB Kongsberg multibeam vendor format
0705_20100826_003620_Melville.all.mb58.gz 63.02MB Kongsberg multibeam vendor format
0706_20100826_010620_Melville.all.mb58.gz 61.91MB Kongsberg multibeam vendor format
0707_20100826_013619_Melville.all.mb58.gz 61.40MB Kongsberg multibeam vendor format
0708_20100826_020620_Melville.all.mb58.gz 61.40MB Kongsberg multibeam vendor format
0709_20100826_023619_Melville.all.mb58.gz 58.58MB Kongsberg multibeam vendor format
0710_20100826_030619_Melville.all.mb58.gz 59.46MB Kongsberg multibeam vendor format
0711_20100826_033619_Melville.all.mb58.gz 58.91MB Kongsberg multibeam vendor format
0712_20100826_040617_Melville.all.mb58.gz 58.76MB Kongsberg multibeam vendor format
0713_20100826_043619_Melville.all.mb58.gz 57.63MB Kongsberg multibeam vendor format
0714_20100826_050621_Melville.all.mb58.gz 54.57MB Kongsberg multibeam vendor format
0715_20100826_053619_Melville.all.mb58.gz 71.22MB Kongsberg multibeam vendor format
0716_20100826_060620_Melville.all.mb58.gz 58.11MB Kongsberg multibeam vendor format
0717_20100826_063619_Melville.all.mb58.gz 69.39MB Kongsberg multibeam vendor format
0718_20100826_070618_Melville.all.mb58.gz 81.17MB Kongsberg multibeam vendor format
0719_20100826_073618_Melville.all.mb58.gz 78.39MB Kongsberg multibeam vendor format
0720_20100826_080617_Melville.all.mb58.gz 69.54MB Kongsberg multibeam vendor format
0721_20100826_083618_Melville.all.mb58.gz 116.49MB Kongsberg multibeam vendor format
0722_20100826_090617_Melville.all.mb58.gz 109.25MB Kongsberg multibeam vendor format
0723_20100826_093616_Melville.all.mb58.gz 70.27MB Kongsberg multibeam vendor format
0724_20100826_100616_Melville.all.mb58.gz 55.22MB Kongsberg multibeam vendor format
0725_20100826_103618_Melville.all.mb58.gz 52.16MB Kongsberg multibeam vendor format
0726_20100826_110618_Melville.all.mb58.gz 68.31MB Kongsberg multibeam vendor format
0727_20100826_113618_Melville.all.mb58.gz 87.52MB Kongsberg multibeam vendor format
0728_20100826_120616_Melville.all.mb58.gz 70.41MB Kongsberg multibeam vendor format
0729_20100826_123616_Melville.all.mb58.gz 55.74MB Kongsberg multibeam vendor format
0730_20100826_130617_Melville.all.mb58.gz 58.81MB Kongsberg multibeam vendor format
0731_20100826_133618_Melville.all.mb58.gz 58.42MB Kongsberg multibeam vendor format
0732_20100826_140619_Melville.all.mb58.gz 55.98MB Kongsberg multibeam vendor format
0733_20100826_143623_Melville.all.mb58.gz 53.07MB Kongsberg multibeam vendor format
0734_20100826_150618_Melville.all.mb58.gz 68.04MB Kongsberg multibeam vendor format
0735_20100826_154327_Melville.all.mb58.gz 40.61MB Kongsberg multibeam vendor format
0736_20100826_173810_Melville.all.mb58.gz 5.50MB Kongsberg multibeam vendor format
0737_20100826_185650_Melville.all.mb58.gz 54.52MB Kongsberg multibeam vendor format
0738_20100826_192642_Melville.all.mb58.gz 54.19MB Kongsberg multibeam vendor format
0739_20100826_195644_Melville.all.mb58.gz 54.51MB Kongsberg multibeam vendor format
0740_20100826_202643_Melville.all.mb58.gz 56.46MB Kongsberg multibeam vendor format
0741_20100826_205639_Melville.all.mb58.gz 55.56MB Kongsberg multibeam vendor format
0742_20100826_212639_Melville.all.mb58.gz 52.96MB Kongsberg multibeam vendor format
0743_20100826_215641_Melville.all.mb58.gz 54.09MB Kongsberg multibeam vendor format
0744_20100826_222639_Melville.all.mb58.gz 60.47MB Kongsberg multibeam vendor format
0745_20100826_225639_Melville.all.mb58.gz 68.78MB Kongsberg multibeam vendor format
0746_20100826_232638_Melville.all.mb58.gz 80.24MB Kongsberg multibeam vendor format
0747_20100826_235638_Melville.all.mb58.gz 103.65MB Kongsberg multibeam vendor format
0748_20100827_002637_Melville.all.mb58.gz 96.75MB Kongsberg multibeam vendor format
0749_20100827_005637_Melville.all.mb58.gz 15.57MB Kongsberg multibeam vendor format
0750_20100827_010345_Melville.all.mb58.gz 76.16MB Kongsberg multibeam vendor format
0751_20100827_013349_Melville.all.mb58.gz 58.24MB Kongsberg multibeam vendor format
0752_20100827_020348_Melville.all.mb58.gz 59.28MB Kongsberg multibeam vendor format
0753_20100827_023345_Melville.all.mb58.gz 57.70MB Kongsberg multibeam vendor format
0754_20100827_030349_Melville.all.mb58.gz 58.52MB Kongsberg multibeam vendor format
0755_20100827_033348_Melville.all.mb58.gz 69.81MB Kongsberg multibeam vendor format
0756_20100827_040348_Melville.all.mb58.gz 58.25MB Kongsberg multibeam vendor format
0757_20100827_043347_Melville.all.mb58.gz 59.78MB Kongsberg multibeam vendor format
0758_20100827_050347_Melville.all.mb58.gz 70.79MB Kongsberg multibeam vendor format
0759_20100827_053345_Melville.all.mb58.gz 74.65MB Kongsberg multibeam vendor format
0760_20100827_060347_Melville.all.mb58.gz 64.19MB Kongsberg multibeam vendor format
0761_20100827_063348_Melville.all.mb58.gz 62.65MB Kongsberg multibeam vendor format
0762_20100827_070349_Melville.all.mb58.gz 59.22MB Kongsberg multibeam vendor format
0763_20100827_073347_Melville.all.mb58.gz 58.21MB Kongsberg multibeam vendor format
0764_20100827_080348_Melville.all.mb58.gz 62.79MB Kongsberg multibeam vendor format
0765_20100827_083348_Melville.all.mb58.gz 68.35MB Kongsberg multibeam vendor format
0766_20100827_090345_Melville.all.mb58.gz 85.39MB Kongsberg multibeam vendor format
0767_20100827_093345_Melville.all.mb58.gz 60.23MB Kongsberg multibeam vendor format
0768_20100827_100349_Melville.all.mb58.gz 56.75MB Kongsberg multibeam vendor format
0769_20100827_103347_Melville.all.mb58.gz 55.14MB Kongsberg multibeam vendor format
0770_20100827_110346_Melville.all.mb58.gz 54.36MB Kongsberg multibeam vendor format
0771_20100827_113350_Melville.all.mb58.gz 55.00MB Kongsberg multibeam vendor format
0772_20100827_120349_Melville.all.mb58.gz 58.12MB Kongsberg multibeam vendor format
0773_20100827_123347_Melville.all.mb58.gz 62.36MB Kongsberg multibeam vendor format
0774_20100827_130346_Melville.all.mb58.gz 56.64MB Kongsberg multibeam vendor format
0775_20100827_133347_Melville.all.mb58.gz 58.07MB Kongsberg multibeam vendor format
0776_20100827_140347_Melville.all.mb58.gz 58.08MB Kongsberg multibeam vendor format
0777_20100827_143347_Melville.all.mb58.gz 58.27MB Kongsberg multibeam vendor format
0778_20100827_150345_Melville.all.mb58.gz 60.12MB Kongsberg multibeam vendor format
0779_20100827_153345_Melville.all.mb58.gz 62.30MB Kongsberg multibeam vendor format
0780_20100827_160346_Melville.all.mb58.gz 61.04MB Kongsberg multibeam vendor format
0781_20100827_163346_Melville.all.mb58.gz 60.02MB Kongsberg multibeam vendor format
0782_20100827_170346_Melville.all.mb58.gz 61.30MB Kongsberg multibeam vendor format
0783_20100827_173346_Melville.all.mb58.gz 63.16MB Kongsberg multibeam vendor format
0784_20100827_180346_Melville.all.mb58.gz 19.18MB Kongsberg multibeam vendor format
0785_20100827_181338_Melville.all.mb58.gz 51.44MB Kongsberg multibeam vendor format
0786_20100827_183515_Melville.all.mb58.gz 169.99MB Kongsberg multibeam vendor format
0787_20100827_190514_Melville.all.mb58.gz 101.59MB Kongsberg multibeam vendor format

Metadata Files: 3

Files File Size Description
MV1010_Multibeam.xml NGDC created ISO metadata
em122_bag_info.tar.gz 33.4KB Additional cruise information
xbt_bag_info.tar.gz 2.0KB Additional cruise information

Ancillary Files: 1

Files File Size Description
xbt.tar.gz 293.7KB Expendable Bathythermograph (XBT) data